Stations météo

réclame
Mon MeteoGroup
Wainfleet, Grande-Bretagne (3392): Température de l'air & dewpoint: 22.10.2020 14:00:00 - 28.10.2020 14:00:00 (GMT)Wainfleet, Grande-Bretagne (3392): Température de l'air -20cm & Température de l'air -100cm: 22.10.2020 14:00:00 - 28.10.2020 14:00:00 (GMT)Wainfleet, Grande-Bretagne (3392): Vitesse du vent & gusts: 22.10.2020 14:00:00 - 28.10.2020 14:00:00 (GMT)Wainfleet, Grande-Bretagne (3392): Direction du vent: 22.10.2020 14:00:00 - 28.10.2020 14:00:00 (GMT)Wainfleet, Grande-Bretagne (3392): reduced air pressure: 22.10.2020 14:00:00 - 28.10.2020 14:00:00 (GMT)Wainfleet, Grande-Bretagne (3392): visibility: 22.10.2020 14:00:00 - 28.10.2020 14:00:00 (GMT)Wainfleet, Grande-Bretagne (3392): Quantités de précipitations: 22.10.2020 14:00:00 - 28.10.2020 14:00:00 (GMT)
Date & Time tt [°C] td [°C] tt -20cm [°C] tt -100cm [°C] ff [km/h] ff [knt] fx [km/h] fx [knt] dd ppp [hPa] vv [km] rr [mm]
28.10.2020 14:00:00 11,5 7,3 - - 35 19 54 29 SW 998,1 55 0,0
28.10.2020 13:00:00 11,7 7,9 - - 37 20 48 26 SW 998,6 55 0,0
28.10.2020 12:00:00 10,6 7,8 - - 34 18 48 26 SSW 998,8 70 0,0
28.10.2020 11:00:00 10,6 7,9 - - 34 18 48 26 SW 998,8 55 0,0
28.10.2020 10:00:00 9,2 6,8 - - 35 19 46 25 SSW 998,9 45 0,0
28.10.2020 09:00:00 8,2 6,5 11,0 12,2 31 17 - - SSW 998,7 40 0,0
28.10.2020 08:00:00 7,4 6,1 - - 28 15 - - SW 998,3 45 0,0
28.10.2020 07:00:00 7,1 5,6 - - 35 19 48 26 SSW 997,6 35 0,0
28.10.2020 06:00:00 7,3 5,9 - - 31 17 - - SSW 997,1 30 0,0
28.10.2020 05:00:00 7,4 5,8 - - 35 19 - - SSW 996,8 30 0,0
28.10.2020 04:00:00 7,5 5,9 - - 31 17 - - SSW 996,9 29 0,0
28.10.2020 03:00:00 7,8 6,2 - - 35 19 - - SSW 996,6 28 0,0
28.10.2020 02:00:00 7,4 6,0 - - 31 17 - - SSW 996,6 29 0,0
28.10.2020 01:00:00 7,0 5,7 - - 28 15 - - SW 996,6 24 0,0
28.10.2020 00:00:00 7,1 5,6 - - 29 16 - - SW 996,5 28 0,0
27.10.2020 23:00:00 7,2 5,5 - - 28 15 - - SW 995,9 27 0,0
27.10.2020 22:00:00 7,3 5,6 - - 22 12 - - SW 995,3 26 0,0
27.10.2020 21:00:00 7,8 5,9 - - 22 12 - - WSW 994,6 30 0,0
27.10.2020 20:00:00 8,8 6,3 - - 24 13 - - WSW 993,7 35 0,0
27.10.2020 19:00:00 9,7 7,8 - - 18 10 - - WSW 992,7 75 0,0
27.10.2020 18:00:00 10,8 9,0 - - 24 13 - - WSW 991,3 75 0,0
27.10.2020 17:00:00 11,8 11,1 - - 37 20 59 32 SW 990,2 75 0,0
27.10.2020 16:00:00 11,2 11,1 - - 41 22 50 27 S 989,6 20 0,6
27.10.2020 15:00:00 10,7 10,4 - - 37 20 52 28 S 990,4 3,3 0,2
27.10.2020 14:00:00 10,4 9,9 - - 41 22 52 28 S 991,6 18 0,0
27.10.2020 13:00:00 9,8 9,6 - - 35 19 54 29 SSE 993,3 9 0,4
27.10.2020 12:00:00 9,6 9,0 - - 37 20 46 25 S 994,9 8 0,2
27.10.2020 11:00:00 9,2 8,0 - - 31 17 - - S 996,2 40 0,0
27.10.2020 10:00:00 8,6 7,8 - - 24 13 - - SSW 996,9 25 0,2
27.10.2020 09:00:00 8,0 7,2 11,2 12,2 28 15 - - SSW 997,1 35 0,0
27.10.2020 08:00:00 6,9 6,3 - - 22 12 - - SSW 997,7 24 0,0
27.10.2020 07:00:00 6,4 5,9 - - 28 15 - - SSW 997,7 29 0,0
27.10.2020 06:00:00 5,4 5,0 - - 21 11 - - SW 997,5 30 0,0
27.10.2020 05:00:00 5,5 4,9 - - 26 14 - - SW 997,9 35 0,0
27.10.2020 04:00:00 5,3 4,9 - - 18 10 - - SW 997,8 35 0,0
27.10.2020 03:00:00 5,1 4,5 - - 16 9 - - SW 997,9 30 0,0
27.10.2020 02:00:00 5,7 5,2 - - 24 13 - - SW 998,0 30 0,0
27.10.2020 01:00:00 6,2 5,5 - - 21 11 - - WSW 997,9 30 0,0
27.10.2020 00:00:00 6,3 5,5 - - 22 12 - - SW 997,8 30 0,0
26.10.2020 23:00:00 6,7 5,7 - - 22 12 - - SW 997,8 30 0,0
26.10.2020 22:00:00 7,4 6,2 - - 22 12 - - WSW 997,4 35 0,0
26.10.2020 21:00:00 7,5 6,2 - - 24 13 - - SW 997,0 40 0,0
26.10.2020 20:00:00 7,6 6,3 - - 24 13 - - SW 996,7 45 0,0
26.10.2020 19:00:00 7,8 6,4 - - 22 12 - - SW 996,3 50 0,0
26.10.2020 18:00:00 7,3 5,9 - - 15 8 - - WSW 996,0 75 0,0
26.10.2020 17:00:00 9,2 6,3 - - 21 11 48 26 WSW 995,0 75 0,0
26.10.2020 16:00:00 10,5 7,8 - - 24 13 - - W 994,7 60 0,0
26.10.2020 15:00:00 9,9 9,0 - - 18 10 55 30 SW 994,5 65 1,6
26.10.2020 14:00:00 11,7 8,3 - - 21 11 50 27 WSW 993,8 35 0,0
26.10.2020 13:00:00 12,3 10,0 - - 29 16 - - WSW 993,3 65 0,0
26.10.2020 12:00:00 10,3 9,2 - - 29 16 - - SW 993,5 55 0,2
26.10.2020 11:00:00 10,4 8,6 - - 34 18 46 25 SW 993,3 55 0,0
26.10.2020 10:00:00 8,7 7,3 - - 31 17 - - SSW 993,3 45 0,0
26.10.2020 09:00:00 8,0 6,6 11,7 12,4 31 17 - - SSW 993,2 45 0,0
26.10.2020 08:00:00 7,1 6,1 - - 31 17 - - SSW 993,2 45 0,0
26.10.2020 07:00:00 6,4 5,5 - - 28 15 - - SSW 992,9 45 0,0
26.10.2020 06:00:00 6,4 5,6 - - 28 15 - - SW 992,8 50 0,0
26.10.2020 05:00:00 6,8 5,8 - - 29 16 - - SSW 992,8 45 0,0
26.10.2020 04:00:00 6,9 6,1 - - 28 15 - - SSW 992,9 35 0,0
26.10.2020 03:00:00 7,2 6,3 - - 29 16 - - SSW 993,0 40 0,0
26.10.2020 02:00:00 7,4 6,3 - - 29 16 - - SSW 993,5 45 0,0
26.10.2020 01:00:00 7,8 6,4 - - 31 17 - - SSW 993,8 55 0,0
26.10.2020 00:00:00 7,8 6,7 - - 26 14 - - SSW 993,9 55 0,0
25.10.2020 23:00:00 8,1 7,0 - - 29 16 - - SSW 993,9 50 0,0
25.10.2020 22:00:00 8,1 6,9 - - 24 13 - - SSW 994,3 75 0,0
25.10.2020 21:00:00 8,5 7,0 - - 26 14 - - SSW 994,5 75 0,0
25.10.2020 20:00:00 8,9 7,2 - - 24 13 - - SSW 994,3 75 0,0
25.10.2020 19:00:00 8,6 6,6 - - 26 14 46 25 SSW 994,2 75 0,0
25.10.2020 18:00:00 9,9 7,8 - - 26 14 - - SSW 994,1 75 0,0
25.10.2020 17:00:00 10,0 7,1 - - 26 14 - - SSW 993,9 75 0,0
25.10.2020 16:00:00 11,2 7,9 - - 21 11 - - SSW 993,7 60 0,0
25.10.2020 15:00:00 12,3 8,1 - - 29 16 - - SSW 993,5 75 0,0
25.10.2020 14:00:00 12,5 8,5 - - 35 19 - - SSW 993,4 55 0,0
25.10.2020 13:00:00 12,3 8,5 - - 35 19 46 25 SSW 993,8 65 0,0
25.10.2020 12:00:00 12,3 9,1 - - 34 18 50 27 SSW 993,8 55 0,0
25.10.2020 11:00:00 11,4 8,8 - - 37 20 50 27 SSW 994,2 55 0,0
25.10.2020 10:00:00 10,6 7,9 - - 39 21 54 29 SSW 994,1 45 0,0
25.10.2020 09:00:00 9,8 7,5 11,9 12,5 34 18 - - SSW 994,4 55 0,0
25.10.2020 08:00:00 8,8 7,4 - - 35 19 48 26 SSW 994,3 55 0,0
25.10.2020 07:00:00 8,4 7,2 - - 29 16 - - SSW 993,8 50 0,0
25.10.2020 06:00:00 8,7 7,6 - - 31 17 - - SSW 993,5 55 0,0
25.10.2020 05:00:00 8,7 7,5 - - 28 15 - - SSW 993,7 65 0,0
25.10.2020 04:00:00 8,6 6,9 - - 26 14 - - SW 993,7 75 0,0
25.10.2020 03:00:00 9,2 7,7 - - 26 14 - - SW 993,3 75 0,0
25.10.2020 02:00:00 10,0 9,3 - - 15 8 - - SW 993,3 70 0,0
25.10.2020 01:00:00 10,2 9,2 - - 16 9 - - SW 992,9 75 0,0
25.10.2020 00:00:00 - - - - - - - - - - - -
24.10.2020 23:00:00 11,0 10,4 - - 21 11 - - SW 992,3 11 0,8
24.10.2020 22:00:00 11,5 10,3 - - 31 17 - - SW 991,8 75 0,2
24.10.2020 21:00:00 12,2 11,4 - - 35 19 50 27 SSW 991,3 16 1,4
24.10.2020 20:00:00 12,8 11,8 - - 34 18 46 25 SSW 991,5 11 0,4
24.10.2020 19:00:00 13,3 12,3 - - 34 18 55 30 SSW 991,8 35 0,0
24.10.2020 18:00:00 14,0 12,1 - - 44 24 59 32 SSW 992,1 75 0,4
24.10.2020 17:00:00 13,8 12,5 - - 46 25 70 38 S 992,0 4,9 0,0
24.10.2020 16:00:00 13,8 12,5 - - 50 27 67 36 S 993,0 40 0,0
24.10.2020 15:00:00 14,0 12,0 - - 41 22 57 31 S 995,1 45 0,0
24.10.2020 14:00:00 13,8 11,7 - - 42 23 57 31 S 996,4 40 0,0
24.10.2020 13:00:00 13,5 11,6 - - 41 22 61 33 S 997,8 40 0,0
24.10.2020 12:00:00 12,9 11,2 - - 46 25 59 32 S 998,5 40 0,0
24.10.2020 11:00:00 12,2 10,4 - - 39 21 54 29 S 999,8 35 0,0
24.10.2020 10:00:00 11,0 9,6 - - 42 23 57 31 S 1000,4 35 0,0
24.10.2020 09:00:00 10,5 8,9 12,0 12,7 41 22 54 29 S 1001,0 35 0,0
24.10.2020 08:00:00 9,4 8,0 - - 34 18 50 27 S 1001,9 35 0,0
24.10.2020 07:00:00 8,9 7,2 - - 35 19 46 25 S 1002,5 35 0,0
24.10.2020 06:00:00 8,2 6,7 - - 31 17 - - S 1003,5 30 0,0
24.10.2020 05:00:00 7,6 6,2 - - 29 16 - - SSW 1004,5 35 0,0
24.10.2020 04:00:00 7,7 6,0 - - 29 16 - - SSW 1004,6 30 0,0
24.10.2020 03:00:00 7,5 6,0 - - 26 14 - - SSW 1005,6 30 0,0
24.10.2020 02:00:00 7,3 5,7 - - 26 14 - - SSW 1006,7 40 0,0
24.10.2020 01:00:00 7,3 5,6 - - 24 13 - - SSW 1007,1 45 0,0
24.10.2020 00:00:00 6,3 5,2 - - 15 8 - - SW 1007,3 40 0,0
23.10.2020 23:00:00 6,4 5,5 - - 13 7 - - SW 1007,6 40 0,0
23.10.2020 22:00:00 7,0 6,0 - - 13 7 - - WSW 1007,6 40 0,0
23.10.2020 21:00:00 7,3 6,5 - - 13 7 - - WSW 1007,8 40 0,0
23.10.2020 20:00:00 7,7 6,4 - - 9 5 - - W 1007,2 55 0,0
23.10.2020 19:00:00 8,5 7,6 - - 15 8 - - WSW 1006,7 50 0,0
23.10.2020 18:00:00 10,0 8,7 - - 15 8 - - W 1006,0 75 0,0
23.10.2020 17:00:00 11,1 9,4 - - 21 11 - - W 1005,2 75 0,4
23.10.2020 16:00:00 13,4 10,9 - - 21 11 - - SW 1004,6 75 0,0
23.10.2020 15:00:00 13,6 10,5 - - 24 13 - - SW 1004,2 75 0,0
23.10.2020 14:00:00 13,9 11,6 - - 26 14 - - SW 1004,0 75 0,0
23.10.2020 13:00:00 12,9 11,2 - - 18 10 - - SW 1004,3 65 0,2
23.10.2020 12:00:00 12,5 10,9 - - 16 9 - - WSW 1005,2 50 0,0
23.10.2020 11:00:00 12,9 11,5 - - 26 14 - - SW 1005,4 60 0,0
23.10.2020 10:00:00 13,1 11,1 - - 31 17 - - SW 1005,0 75 0,0
23.10.2020 09:00:00 11,6 11,2 12,2 12,7 21 11 - - SW 1005,2 10 0,0
23.10.2020 08:00:00 11,1 11,1 - - 24 13 - - S 1005,0 7 1,2
23.10.2020 07:00:00 10,1 10,0 - - 11 6 - - SSW 1005,5 4,1 1,4
23.10.2020 06:00:00 8,6 8,3 - - 4 2 - - ESE 1006,0 7 0,2
23.10.2020 05:00:00 8,3 7,9 - - 2 1 - - SW 1007,0 10 0,2
23.10.2020 04:00:00 8,4 7,9 - - 8 4 - - SSW 1007,2 35 0,0
23.10.2020 03:00:00 8,2 7,5 - - 9 5 - - S 1007,9 30 0,0
23.10.2020 02:00:00 7,0 6,4 - - 11 6 - - SSW 1008,7 40 0,0
23.10.2020 01:00:00 5,6 5,2 - - 11 6 - - SW 1009,0 35 0,0
23.10.2020 00:00:00 6,1 5,4 - - 11 6 - - SW 1009,1 35 0,0
22.10.2020 23:00:00 8,1 6,6 - - 15 8 - - SW 1009,3 60 0,0
22.10.2020 22:00:00 7,7 6,4 - - 11 6 - - WSW 1009,3 40 0,0
22.10.2020 21:00:00 6,9 5,4 - - 9 5 - - WSW 1009,4 35 0,0
22.10.2020 20:00:00 7,3 5,9 - - 13 7 - - WSW 1009,1 50 0,0
22.10.2020 19:00:00 8,1 6,3 - - 16 9 - - SW 1008,7 60 0,0
22.10.2020 18:00:00 9,1 7,0 - - 13 7 - - SW 1008,2 65 0,0
22.10.2020 17:00:00 9,9 6,8 - - 16 9 - - WSW 1007,6 75 0,0
22.10.2020 16:00:00 12,1 6,7 - - 21 11 - - WSW 1007,0 75 0,0
22.10.2020 15:00:00 13,0 7,4 - - 26 14 - - WSW 1006,6 75 0,0
22.10.2020 14:00:00 13,1 7,4 - - 26 14 48 26 WSW 1006,1 75 0,0

tt = Température de l'air
td = dewpoint
tt -20cm = Température de l'air -20cm
tt -100cm = Température de l'air -100cm
ff = Vitesse du vent
fx = gusts
dd = Direction du vent
ppp = reduced air pressure
vv = visibility
rr = Quantités de précipitations

stations d'obs. à proximité